Regional Weather Roundup
Issued by NWS

Home | Current Version | Previous Version | Text Only | Print | Product List | Glossary Off
Versions: 1 2 3 4 5 6 7 8 9 10 11 12 13 14 15 16 17 18 19 20 21 22 23 24 25 26 27 28 29 30 31 32 33 34 35 36 37 38 39 40 41 42 43 44 45

000
ASUS43 KDMX 272107
RWRIA

WEATHER ROUNDUP FOR IOWA
NATIONAL WEATHER SERVICE DES MOINES IA
300 PM CST SAT DEC 27 2014

NOTE: "FAIR" INDICATES FEW OR NO CLOUDS BELOW 12,000 FEET WITH NO
SIGNIFICANT WEATHER AND/OR OBSTRUCTIONS TO VISIBILITY.

* - THESE STATIONS ARE NOT NWS STATIONS...THUS NOT UNDER NWS
QUALITY CONTROL.  THEY ALSO DO NOT REPORT WEATHER SUCH
AS PRECIPITATION OR FOG.

IAZ001>003-012>014-020>022-031>034-043>046-272200-
   NORTHWEST IOWA

CITY           SKY/WX    TMP DP  RH WIND       PRES   REMARKS
CARROLL *      MOSUNNY   23  18  80 W14       30.18S WCI  11
CHEROKEE *     SUNNY     19  14  79 W9        30.18R WCI   9
DENISON *      SUNNY     23  16  74 W10       30.17F WCI  12
LE MARS *      SUNNY     18  12  79 W8        30.20R WCI   7
ORANGE CITY *  SUNNY     16   9  73 W14       30.16R WCI   1
SHELDON *      SUNNY     16  12  86 W10       30.15R WCI   3
SIOUX CITY     SUNNY     22  12  65 W7        30.20F WCI  13
SPENCER        SUNNY     20  12  71 W10       30.14F WCI   9
STORM LAKE *   SUNNY     18  14  86 W13       30.16S WCI   4
$$

IAZ055>058-069>071-079>083-090>094-272200-
   SOUTHWEST IOWA

CITY           SKY/WX    TMP DP  RH WIND       PRES   REMARKS
ATLANTIC *     PTSUNNY   27  19  74 NW9       30.20R WCI  17
AUDUBON *      PTSUNNY   27  18  69 NW6       30.19R WCI  20
CLARINDA *     CLOUDY    28  21  74 W13       30.24S WCI  18
COUNCIL BLFS * SUNNY     27  19  74 W8G15     30.20R WCI  18
CRESTON *      CLOUDY    25  21  86 W15       30.20R WCI  12
HARLAN  *      MOSUNNY   27  21  80 NW9       30.23S WCI  17
LAMONI         CLOUDY    28  22  78 W13       30.19R WCI  17
RED OAK *      CLOUDY    28  21  74 VRB6G13   30.22S WCI  22
SHENANDOAH *   PTSUNNY   28  21  74 W8        30.24S WCI  20
$$

IAZ047>049-059>061-072>074-084-272200-
   CENTRAL IOWA

CITY           SKY/WX    TMP DP  RH WIND       PRES   REMARKS
AMES           MOSUNNY   26  18  71 NW14      30.17R WCI  14
ANKENY *       CLOUDY    28  21  74 W15       30.18R WCI  17
CHARITON *     CLOUDY    28  23  80 NW10G17   30.18R WCI  19
DES MOINES     PTSUNNY   29  20  69 NW18      30.19R WCI  16
GRINNELL*      CLOUDY    28  23  80 W14G20    30.17R WCI  17
KNOXVILLE *    CLOUDY    28  21  74 W15G21    30.17R WCI  17
MARSHALLTOWN   MOSUNNY   26  20  77 NW15      30.15R WCI  14
PELLA *        CLOUDY    30  23  76 NW15      30.19R WCI  19
PERRY *        PTSUNNY   25  21  86 NW9       30.19S WCI  15
$$

IAZ004>006-015-016-023>025-035-036-272200-
   NORTH CENTRAL IOWA

CITY           SKY/WX    TMP DP  RH WIND       PRES   REMARKS
ALGONA *       SUNNY     21  14  73 NW10      30.14F WCI  10
CLARION *      SUNNY     19  12  73 NW10      30.15S WCI   8
ESTHERVILLE    SUNNY     19  11  70 W10       30.13R WCI   7
FORT DODGE *   SUNNY     21  12  68 W10       30.16F WCI  10
MASON CITY     MOSUNNY   19  13  77 NW15      30.13R WCI   5
FOREST CITY *  SUNNY     21  10  63 W12       30.13R WCI   9
IOWA FALLS *     N/A     23  18  80 W16       30.16R WCI  10
$$

IAZ007>011-017>019-026>030-037>042-050>054-066-272200-
   NORTHEAST IOWA

CITY           SKY/WX    TMP DP  RH WIND       PRES   REMARKS
CEDAR RAPIDS   CLOUDY    30  25  81 W18       30.12R WCI  18
CHARLES CITY * CLOUDY    21  19  93 NW13G18   30.12R WCI   9
CLINTON *      CLOUDY    32  25  74 NW16      30.13R WCI  21
DECORAH *      CLOUDY    25  21  86 W10G20    30.07R WCI  15
DUBUQUE        PTSUNNY   31  25  78 W12       30.06R WCI  22
MONTICELLO *   CLOUDY    32  28  86 NW13G22   30.09R WCI  22
OELWEIN *      CLOUDY    25  23  93 NW16      30.11R WCI  12
WATERLOO       MOSUNNY   25  19  78 NW14      30.13R WCI  13
$$

IAZ064-065-067-068-078-272200-
   EAST CENTRAL IOWA

CITY           SKY/WX    TMP DP  RH WIND       PRES   REMARKS
DAVENPORT      CLOUDY    31  25  78 W18       30.12R WCI  19
IOWA CITY      CLOUDY    31  24  75 NW10      30.16R WCI  22
MT. PLEASANT * CLOUDY    32  27  80 W10G16    30.15R WCI  24
MUSCATINE *    CLOUDY    34  25  69 W14G21    30.15R WCI  24
QUAD CITIES    CLOUDY    33  25  72 W13G23    30.12R WCI  24
$$

IAZ062-063-075>077-085>089-095>099-272200-
   SOUTHEAST IOWA

CITY           SKY/WX    TMP DP  RH WIND       PRES   REMARKS
BURLINGTON     CLOUDY    33  26  75 NW16      30.13F WCI  23
FAIRFIELD *    CLOUDY    30  25  80 NW14      30.16S WCI  20
FORT MADISON * CLOUDY    34  28  80 NW14      30.15S WCI  24
KEOKUK *       CLOUDY    34  27  75 NW9G17    30.15R WCI  26
OSKALOOSA *    CLOUDY    30  25  80 NW14      30.18R WCI  20
CENTERVILLE *  CLOUDY    30  25  80 W15       30.18S WCI  19
OTTUMWA        CLOUDY    30  23  75 NW16      30.17R WCI  19
WASHINGTON *   CLOUDY    32  28  86 NW16      30.15R WCI  21
$$

ABBREVIATIONS USED IN REMARKS
   TC - TEMPERATURES IN CELSIUS
  WCI - WIND CHILL INDEX
   HX - HEAT INDEX
  VSB - VISIBILITY
$$




USA.gov is the U.S. government's official web portal to all federal, state and local government web resources and services.